When you browse on this site, cookies collect data to enhance your experience and personalize the content and advertising you see.
Visit our Privacy Policy to learn more. By continuing to use the site, you agree to this use of cookies and data.
  • en France
  • Liste des pays
  • À 7 jours
  • Température de l'eau
  • Carte satellitaire
  • Carte météo
  • Widgets météo
  • user-avatar
    Se connecter

    Météo par heure à Nyala

    Ce jour, 18 Juillet, Jeudi

    Heure Température Précipitation Vent Pression Humidité
    00:00 +28°C° 0 mm 4 m/s 697 mmHg 65%
    01:00 +27°C° 0 mm 4 m/s 697 mmHg 66%
    02:00 +27°C° 0 mm 5 m/s 697 mmHg 69%
    03:00 +27°C° 0.7 mm 5 m/s 697 mmHg 71%
    04:00 +26°C° 0.7 mm 5 m/s 698 mmHg 72%
    05:00 +26°C° 0.7 mm 5 m/s 698 mmHg 74%
    06:00 +26°C° 0.6 mm 5 m/s 698 mmHg 70%
    07:00 +27°C° 0.6 mm 4 m/s 698 mmHg 66%
    08:00 +27°C° 0 mm 4 m/s 698 mmHg 64%
    09:00 +28°C° 0 mm 4 m/s 698 mmHg 63%
    10:00 +29°C° 0 mm 5 m/s 698 mmHg 62%
    11:00 +29°C° 0 mm 5 m/s 698 mmHg 61%
    12:00 +30°C° 0 mm 5 m/s 698 mmHg 56%
    13:00 +32°C° 0 mm 4 m/s 698 mmHg 50%
    14:00 +34°C° 0 mm 4 m/s 697 mmHg 45%
    15:00 +34°C° 0 mm 4 m/s 697 mmHg 44%
    16:00 +34°C° 0 mm 4 m/s 697 mmHg 43%
    17:00 +34°C° 0 mm 4 m/s 696 mmHg 42%
    18:00 +33°C° 0 mm 3 m/s 697 mmHg 46%
    19:00 +31°C° 0 mm 3 m/s 697 mmHg 49%
    20:00 +30°C° 0 mm 3 m/s 697 mmHg 53%
    21:00 +30°C° 0 mm 2 m/s 698 mmHg 55%
    22:00 +29°C° 0 mm 2 m/s 698 mmHg 57%
    23:00 +28°C° 0 mm 2 m/s 698 mmHg 59%

    Demain, 19 Juillet, Vendredi

    Heure Température Précipitation Vent Pression Humidité
    00:00 +28°C° 0 mm 1 m/s 698 mmHg 60%
    01:00 +28°C° 0 mm 1 m/s 698 mmHg 61%
    02:00 +28°C° 0 mm 1 m/s 698 mmHg 62%
    03:00 +27°C° 0 mm 2 m/s 698 mmHg 65%
    04:00 +27°C° 0 mm 2 m/s 698 mmHg 68%
    05:00 +26°C° 0 mm 3 m/s 698 mmHg 70%
    06:00 +26°C° 0.1 mm 3 m/s 698 mmHg 72%
    07:00 +26°C° 0.1 mm 4 m/s 698 mmHg 73%
    08:00 +26°C° 0.1 mm 4 m/s 698 mmHg 75%
    09:00 +27°C° 0 mm 4 m/s 699 mmHg 69%
    10:00 +29°C° 0 mm 4 m/s 699 mmHg 63%
    11:00 +30°C° 0 mm 4 m/s 699 mmHg 57%
    12:00 +32°C° 0 mm 4 m/s 699 mmHg 54%
    13:00 +32°C° 0 mm 4 m/s 699 mmHg 52%
    14:00 +33°C° 0 mm 3 m/s 698 mmHg 49%
    15:00 +33°C° 0 mm 3 m/s 698 mmHg 47%
    16:00 +33°C° 0 mm 3 m/s 697 mmHg 46%
    17:00 +34°C° 0 mm 3 m/s 696 mmHg 44%
    18:00 +33°C° 0.5 mm 3 m/s 697 mmHg 48%
    19:00 +31°C° 0.5 mm 3 m/s 697 mmHg 53%
    20:00 +29°C° 0.5 mm 3 m/s 697 mmHg 57%
    21:00 +29°C° 0.4 mm 2 m/s 697 mmHg 59%
    22:00 +29°C° 0.4 mm 2 m/s 698 mmHg 61%
    23:00 +28°C° 0.4 mm 2 m/s 698 mmHg 63%

    Après-demain, 20 Juillet, Samedi

    Heure Température Précipitation Vent Pression Humidité
    00:00 +28°C° 0.1 mm 2 m/s 698 mmHg 64%
    01:00 +28°C° 0.1 mm 2 m/s 698 mmHg 65%
    02:00 +27°C° 0.1 mm 3 m/s 698 mmHg 66%
    03:00 +27°C° 0.3 mm 3 m/s 697 mmHg 69%
    04:00 +26°C° 0.3 mm 3 m/s 697 mmHg 72%
    05:00 +26°C° 0.3 mm 3 m/s 697 mmHg 74%
    06:00 +26°C° 0 mm 4 m/s 697 mmHg 70%
    07:00 +27°C° 0 mm 4 m/s 698 mmHg 66%
    08:00 +28°C° 0 mm 4 m/s 699 mmHg 62%
    09:00 +30°C° 0 mm 3 m/s 699 mmHg 57%
    10:00 +31°C° 0 mm 3 m/s 699 mmHg 51%
    11:00 +34°C° 0 mm 3 m/s 699 mmHg 46%
    12:00 +34°C° 0 mm 2 m/s 699 mmHg 43%
    13:00 +34°C° 0 mm 1 m/s 698 mmHg 39%
    14:00 +35°C° 0 mm 1 m/s 698 mmHg 36%
    15:00 +35°C° 0 mm 1 m/s 697 mmHg 37%
    16:00 +36°C° 0 mm 2 m/s 697 mmHg 37%
    17:00 +35°C° 0 mm 3 m/s 696 mmHg 37%
    18:00 +34°C° 0 mm 3 m/s 697 mmHg 43%
    19:00 +33°C° 0 mm 4 m/s 697 mmHg 48%
    20:00 +30°C° 0 mm 4 m/s 697 mmHg 54%
    21:00 +30°C° 0 mm 4 m/s 697 mmHg 59%
    22:00 +29°C° 0 mm 3 m/s 697 mmHg 64%
    23:00 +28°C° 0 mm 3 m/s 697 mmHg 69%

    21 Juillet, Dimanche

    Heure Température Précipitation Vent Pression Humidité
    00:00 +27°C° 0 mm 3 m/s 697 mmHg 70%
    01:00 +27°C° 0 mm 3 m/s 697 mmHg 71%
    02:00 +27°C° 0 mm 4 m/s 697 mmHg 71%
    03:00 +26°C° 0 mm 4 m/s 697 mmHg 73%
    04:00 +26°C° 0 mm 4 m/s 697 mmHg 75%
    05:00 +26°C° 0 mm 5 m/s 697 mmHg 77%
    06:00 +26°C° 0.8 mm 5 m/s 698 mmHg 75%
    07:00 +26°C° 0.8 mm 6 m/s 698 mmHg 73%
    08:00 +26°C° 0.8 mm 6 m/s 699 mmHg 71%
    09:00 +28°C° 0.2 mm 5 m/s 699 mmHg 61%
    10:00 +30°C° 0.2 mm 5 m/s 699 mmHg 52%
    11:00 +33°C° 0.2 mm 4 m/s 699 mmHg 43%
    12:00 +34°C° 0 mm 4 m/s 698 mmHg 41%
    13:00 +35°C° 0 mm 4 m/s 698 mmHg 39%
    14:00 +36°C° 0 mm 4 m/s 697 mmHg 36%
    15:00 +36°C° 0 mm 3 m/s 697 mmHg 35%
    16:00 +36°C° 0 mm 2 m/s 696 mmHg 35%
    17:00 +37°C° 0 mm 2 m/s 696 mmHg 34%
    18:00 +36°C° 0 mm 3 m/s 696 mmHg 38%
    19:00 +34°C° 0 mm 3 m/s 696 mmHg 42%
    20:00 +33°C° 0 mm 4 m/s 697 mmHg 46%
    21:00 +32°C° 0.2 mm 4 m/s 697 mmHg 50%
    22:00 +32°C° 0.2 mm 4 m/s 697 mmHg 55%
    23:00 +30°C° 0.2 mm 3 m/s 698 mmHg 60%

    22 Juillet, Lundi

    Heure Température Précipitation Vent Pression Humidité
    00:00 +29°C° 0.3 mm 3 m/s 697 mmHg 62%
    01:00 +29°C° 0.3 mm 3 m/s 697 mmHg 65%
    02:00 +28°C° 0.3 mm 3 m/s 697 mmHg 68%
    03:00 +27°C° 1.9 mm 3 m/s 697 mmHg 70%
    04:00 +27°C° 1.9 mm 3 m/s 697 mmHg 72%
    05:00 +26°C° 1.9 mm 2 m/s 697 mmHg 75%
    06:00 +25°C° 1.2 mm 4 m/s 697 mmHg 78%
    07:00 +23°C° 1.2 mm 6 m/s 698 mmHg 81%
    08:00 +22°C° 1.2 mm 7 m/s 698 mmHg 83%
    09:00 +23°C° 0.1 mm 7 m/s 699 mmHg 78%
    10:00 +24°C° 0.1 mm 6 m/s 699 mmHg 73%
    11:00 +26°C° 0.1 mm 6 m/s 699 mmHg 68%
    12:00 +28°C° 0 mm 5 m/s 699 mmHg 60%
    13:00 +29°C° 0 mm 3 m/s 698 mmHg 52%
    14:00 +31°C° 0 mm 2 m/s 698 mmHg 43%
    15:00 +30°C° 0 mm 3 m/s 698 mmHg 50%
    16:00 +29°C° 0 mm 4 m/s 697 mmHg 56%
    17:00 +28°C° 0 mm 6 m/s 697 mmHg 62%
    18:00 +27°C° 0 mm 5 m/s 698 mmHg 66%
    19:00 +27°C° 0 mm 5 m/s 698 mmHg 70%
    20:00 +26°C° 0 mm 5 m/s 698 mmHg 75%
    21:00 +26°C° 0 mm 5 m/s 698 mmHg 77%
    22:00 +25°C° 0 mm 5 m/s 699 mmHg 79%
    23:00 +25°C° 0 mm 5 m/s 699 mmHg 81%

    23 Juillet, Mardi

    Heure Température Précipitation Vent Pression Humidité
    00:00 +23°C° 0 mm 5 m/s 698 mmHg 81%
    01:00 +23°C° 0 mm 5 m/s 698 mmHg 82%
    02:00 +23°C° 0 mm 5 m/s 697 mmHg 82%
    03:00 +23°C° 0 mm 5 m/s 697 mmHg 82%
    04:00 +23°C° 0 mm 4 m/s 697 mmHg 83%
    05:00 +23°C° 0 mm 4 m/s 697 mmHg 83%
    06:00 +23°C° 0 mm 4 m/s 697 mmHg 81%
    07:00 +25°C° 0 mm 4 m/s 698 mmHg 78%
    08:00 +25°C° 0 mm 4 m/s 698 mmHg 76%
    09:00 +28°C° 0 mm 4 m/s 698 mmHg 66%
    10:00 +30°C° 0 mm 4 m/s 699 mmHg 56%
    11:00 +33°C° 0 mm 4 m/s 699 mmHg 46%
    12:00 +33°C° 0 mm 4 m/s 699 mmHg 44%
    13:00 +34°C° 0 mm 4 m/s 698 mmHg 41%
    14:00 +35°C° 0 mm 4 m/s 698 mmHg 39%
    15:00 +35°C° 0 mm 4 m/s 698 mmHg 38%
    16:00 +35°C° 0 mm 3 m/s 697 mmHg 37%
    17:00 +35°C° 0 mm 3 m/s 697 mmHg 37%
    18:00 +33°C° 0.3 mm 5 m/s 697 mmHg 44%
    19:00 +29°C° 0.3 mm 6 m/s 697 mmHg 52%
    20:00 +27°C° 0.3 mm 8 m/s 697 mmHg 60%
    21:00 +27°C° 0.1 mm 6 m/s 697 mmHg 59%
    22:00 +27°C° 0.1 mm 4 m/s 698 mmHg 59%
    23:00 +27°C° 0.1 mm 2 m/s 698 mmHg 59%
    Voir plus